レモン彗星

C/2022 T1 ( Lemmon )

English version
Home page
Updated on August 27, 2023

---------------------------------------------------------------------

・ プロフィール

発見日 2022年10月3日
発見光度 21.2等
発見者 Mt. Lemmon Survey

・ 写真集

・ 軌道要素

Epoch 2023 Feb. 25.0 TT = JDT 2460000.5
T 2024 Feb. 17.61179 TT                                 Rudenko
q   3.4445325            (2000.0)            P               Q
z  +0.0001890      Peri.  324.33006     -0.89464553     +0.31049320
 +/-0.0000227      Node   236.92425     -0.26597926     -0.94788335
e   0.9993491      Incl.   22.54318     -0.35897690     -0.07149219
>From 238 observations 2022 Oct. 3-2023 May 24, mean residual 0".5.

・ 星図

・ 光度変化

        m1 = 8.7 + 5 logΔ + 10.0 log r

---------------------------------------------------------------------

軌道要素はM.P.E.C. 2023-K136に掲載されたものです。
星図はステラナビゲータ Ver.10 (アストロアーツ) で作成したものです。
光度グラフはComet for Windowsで作成したものです。

---------------------------------------------------------------------

Copyright(C) Seiichi Yoshida (comet@aerith.net). All rights reserved.